Wind_Speed
12 13 14 14 14 14 14 13 13 14 14 14 14 14 14 14 14 14 14 13 13 12 12 8 6 6 6 4 7 14 14 14 10 11 14 17 18 24 20 21 17 20 8 10 14 19 17
15 16 16 17 17 17 17 16 16 15 15 15 15 15 16 15 15 15 14 13 13 12 11 9 6 5 6 6 6 8 14 16 14 12 15 18 17 21 24 25 20 20 14 5 3 12 19
17 17 17 17 17 17 18 18 18 18 17 15 15 15 14 14 15 16 15 16 15 14 12 10 8 6 6 7 6 8 8 17 18 15 14 18 21 29 26 27 25 19 22 20 13 15 18
17 16 16 16 16 17 19 20 19 19 19 19 17 16 13 12 11 13 14 16 17 15 14 12 10 9 12 8 7 8 8 11 21 20 18 18 24 24 28 26 29 23 25 25 20 10 15
16 17 18 17 18 20 20 20 21 20 20 19 19 18 15 13 13 12 14 16 17 17 16 15 13 12 14 11 9 8 8 9 13 23 23 21 21 23 25 27 30 28 21 17 16 18 21
16 16 17 18 20 22 22 23 22 22 21 21 22 22 21 18 17 18 18 19 18 17 17 19 15 15 13 13 11 10 8 9 11 16 26 26 23 23 22 26 26 23 20 17 17 9 15
20 20 21 21 21 22 24 24 24 25 24 22 22 23 24 25 23 22 25 24 23 23 20 19 16 16 18 15 13 14 12 10 11 12 16 26 28 22 20 18 17 19 23 18 11 14 26
26 27 27 27 30 31 31 31 32 30 27 26 24 24 25 27 25 26 27 29 29 28 22 23 22 14 22 21 16 14 15 12 12 13 15 18 18 24 24 24 22 24 22 20 20 21 28
33 35 36 37 38 39 38 37 35 34 32 31 30 26 25 30 27 28 27 25 28 30 28 20 27 21 22 16 16 18 19 17 16 15 15 16 11 23 27 28 26 26 27 22 26 16 33
37 38 39 40 40 41 41 41 40 40 40 40 38 35 31 32 34 33 34 31 36 34 36 23 32 29 27 26 16 19 20 21 20 19 19 18 17 22 27 31 29 27 26 24 30 23 32
42 42 42 42 42 43 43 42 42 42 43 44 45 45 42 41 42 42 39 37 38 38 46 35 34 29 29 31 26 24 25 24 21 21 26 14 21 21 23 28 32 22 28 31 33 29 26
48 48 48 48 48 48 48 48 48 48 47 47 47 47 46 47 44 50 46 44 43 44 50 40 42 37 33 28 29 29 30 30 27 28 30 21 23 23 21 25 32 27 32 36 37 29 33
52 53 53 54 55 55 54 55 55 56 55 54 54 54 54 51 52 50 51 49 48 53 48 45 42 42 41 37 35 37 35 33 32 31 28 23 25 24 23 25 29 33 37 40 47 43 43
53 54 55 56 57 58 59 59 60 62 61 59 58 59 58 58 57 58 54 54 58 55 49 45 42 46 48 44 38 41 40 36 35 37 31 31 31 26 23 26 28 30 41 46 50 50 47
55 56 58 59 60 62 63 64 64 64 65 65 63 63 61 62 61 60 60 61 61 54 49 51 52 52 49 48 47 39 41 40 36 35 38 34 32 27 29 24 30 32 36 35 46 44 47
61 63 65 67 68 69 72 73 73 73 73 71 66 63 62 65 64 64 68 67 62 55 55 55 56 55 55 50 43 43 42 42 45 40 37 37 38 35 30 31 34 35 29 32 41 48 52
70 74 76 77 77 80 81 81 81 82 82 81 77 75 65 66 68 68 66 63 61 59 61 64 63 61 60 60 59 54 51 42 40 40 38 38 40 37 38 41 37 35 39 42 36 43 45
80 81 82 83 85 87 88 89 90 90 90 92 89 83 69 66 68 71 68 66 65 64 64 66 69 70 68 66 66 65 62 55 31 30 36 40 38 45 45 42 40 36 39 40 48 41 47
84 86 89 91 93 95 96 97 99 99 97 94 91 86 65 66 72 65 65 64 67 69 71 74 75 76 74 73 74 71 69 59 46 48 42 37 48 44 47 47 47 46 40 41 42 44 48
85 89 91 93 93 94 94 92 89 87 83 81 77 70 57 53 58 61 61 70 73 74 78 82 84 86 86 83 80 77 76 71 60 59 55 49 51 55 53 51 48 49 44 40 41 47 44
89 89 84 82 82 79 74 70 64 58 56 53 48 50 47 42 41 52 59 63 65 71 76 80 88 92 93 91 89 87 83 78 71 67 65 64 61 58 57 49 46 49 47 41 42 43 45
79 71 68 65 62 59 52 45 38 27 25 26 28 29 30 28 27 38 43 45 51 54 64 76 76 81 87 91 93 90 87 85 80 75 70 65 63 56 57 55 47 49 51 43 40 39 42
65 63 58 51 49 47 43 29 23 21 21 21 18 18 20 21 25 28 35 44 47 50 51 50 60 72 69 78 91 94 93 91 88 81 72 67 65 57 67 59 52 51 57 51 42 38 35
58 52 46 46 43 39 32 24 21 18 18 15 15 18 18 15 21 26 28 33 39 53 55 57 41 60 61 70 79 93 94 96 94 84 73 69 62 59 66 62 59 60 53 50 44 41 40
46 42 40 40 38 35 29 24 19 17 16 16 18 19 23 19 17 21 25 25 25 29 34 51 65 37 43 55 65 68 90 92 95 89 75 70 61 61 61 67 66 61 52 48 46 48 44
42 43 44 39 35 32 28 22 18 19 20 19 20 20 20 19 15 16 21 24 27 25 23 33 38 62 36 28 52 60 65 82 91 93 80 68 54 54 48 62 71 63 53 44 50 53 49
46 44 40 36 32 29 27 23 22 18 17 17 18 18 18 20 13 17 18 21 20 20 20 24 21 28 36 27 32 62 52 64 84 93 71 64 52 49 50 59 64 60 51 43 46 53 48
41 38 36 30 28 27 25 23 22 21 18 16 17 17 18 17 11 20 21 17 19 20 17 18 14 36 25 15 30 52 50 56 72 89 72 60 57 48 41 47 54 52 51 52 53 52 56
38 34 29 29 28 26 25 23 21 19 17 14 13 14 15 16 13 21 16 14 12 17 17 11 15 22 21 13 12 38 37 49 62 74 79 69 59 56 46 46 47 45 47 54 58 52 56
Wind_Direction
299 301 303 304 307 311 314 317 318 317 313 308 305 302 308 312 317 318 318 312 313 313 321 325 323 340 305 272 252 233 228 229 225 219 212 215 212 203 199 206 196 139 86 8 333 327 347
295 297 298 297 297 298 299 302 305 307 309 310 305 297 299 302 305 307 306 307 307 305 302 309 314 311 324 319 265 260 230 228 229 224 216 215 212 214 208 209 209 141 148 244 192 309 296
291 292 292 292 291 291 292 294 295 296 295 297 300 301 299 299 298 299 296 298 305 305 303 296 298 300 304 305 298 284 248 226 232 227 229 214 209 218 212 212 212 175 172 180 197 197 260
283 281 286 290 291 293 294 293 289 287 286 284 283 284 285 286 289 291 295 294 296 296 295 292 287 294 285 290 292 274 268 243 224 231 227 227 219 219 221 215 220 213 191 181 179 218 205
287 285 288 289 295 300 297 296 296 294 289 285 283 281 280 281 283 283 288 286 288 294 294 291 295 298 296 296 282 276 267 257 241 227 230 229 230 231 224 226 228 232 215 189 176 196 242
288 283 284 288 293 295 293 294 295 294 289 286 285 284 282 279 281 288 288 288 286 280 283 287 289 285 288 293 286 266 264 264 247 238 232 234 231 233 233 230 227 236 231 189 157 199 250
288 285 284 283 282 285 287 288 291 293 291 286 285 284 282 281 280 280 284 282 281 280 275 272 281 285 279 274 272 279 263 258 252 245 239 241 240 240 246 247 231 224 229 167 139 214 249
287 285 282 279 281 284 286 285 282 281 285 284 283 282 283 279 277 275 275 278 278 272 269 274 272 261 269 266 264 266 272 257 252 243 239 241 251 238 239 237 226 220 228 196 167 234 241
288 286 284 282 281 282 284 284 283 281 278 275 272 271 273 276 276 274 271 274 275 273 264 259 267 262 265 266 269 263 265 262 255 245 255 250 238 236 233 237 232 217 222 198 189 201 251
286 285 285 285 284 283 283 283 280 279 278 276 273 269 266 271 273 272 270 276 273 276 267 260 258 263 262 266 274 264 261 259 258 256 246 246 235 231 229 231 236 222 216 213 193 191 261
286 284 283 283 283 284 283 283 281 280 279 277 276 272 270 265 276 270 268 272 271 270 268 270 262 261 259 264 254 259 261 263 258 255 252 240 238 239 237 234 228 224 208 204 191 209 265
289 288 286 285 283 283 285 285 285 285 283 281 279 276 273 272 271 271 271 268 266 264 264 269 268 262 261 258 260 256 255 258 252 248 253 245 238 238 230 236 228 217 214 204 202 203 227
291 289 287 285 285 284 284 284 285 286 285 284 283 280 278 272 273 267 268 270 266 262 268 269 269 268 260 255 252 253 253 249 256 258 260 251 252 243 227 229 231 212 213 208 209 209 223
295 292 290 287 285 284 283 283 283 283 281 279 279 279 275 273 272 271 268 267 266 269 267 259 261 259 261 258 256 257 252 246 244 250 248 243 241 242 238 229 233 232 217 216 218 220 224
299 296 293 290 288 286 285 284 282 281 281 277 274 271 272 269 267 266 266 265 267 265 262 257 249 252 253 258 257 253 255 249 244 244 249 250 245 236 236 227 229 229 235 235 224 226 227
301 299 297 296 292 290 290 289 286 285 287 285 279 280 280 277 272 268 264 263 262 259 255 250 251 245 242 236 242 252 245 251 248 239 238 241 244 234 236 235 230 228 235 226 228 230 231
308 306 303 301 299 298 297 296 295 293 293 292 289 286 278 272 272 270 269 264 258 253 245 245 242 239 239 236 232 230 237 247 241 246 240 235 239 236 230 228 227 226 224 226 231 232 234
312 309 307 305 304 304 302 301 299 298 297 295 296 291 280 270 265 267 263 258 252 247 241 238 240 235 231 232 230 229 235 232 228 246 250 245 239 232 239 237 235 227 236 229 232 233 233
309 309 309 308 306 305 304 303 300 298 295 293 290 287 274 267 268 258 254 249 242 239 237 233 230 230 230 229 229 227 228 221 199 204 244 249 247 235 226 227 229 234 228 232 235 242 243
312 311 309 308 307 306 305 303 301 298 293 289 283 278 266 255 254 250 242 241 236 232 230 230 226 228 226 224 221 221 223 214 200 202 204 216 238 237 232 232 224 232 234 230 235 233 237
313 312 313 313 314 312 310 307 302 294 286 282 276 274 268 254 244 244 245 246 239 232 232 231 230 224 225 223 219 220 218 216 201 202 205 210 221 234 240 235 220 227 224 236 235 238 237
317 319 319 319 319 323 320 311 306 296 290 298 299 279 267 262 250 242 240 245 250 243 240 234 241 234 228 222 220 216 215 211 198 199 201 206 215 226 234 233 228 218 220 220 241 243 243
323 324 323 323 325 330 334 321 310 301 296 294 289 282 270 258 253 247 239 240 243 248 236 239 242 239 231 224 222 216 214 206 198 196 201 203 207 215 227 224 225 213 221 214 214 237 248
323 326 326 327 325 327 331 329 319 308 298 289 288 291 282 270 261 247 240 238 239 240 241 241 248 245 237 229 220 217 209 208 202 197 199 201 205 203 221 219 217 228 219 215 212 220 235
332 334 337 335 331 329 325 325 324 312 303 292 280 280 281 280 273 246 235 238 238 254 258 245 239 243 235 240 226 222 212 209 204 198 199 199 206 204 217 221 219 225 224 213 208 218 216
338 335 332 329 330 332 328 320 314 313 308 295 284 282 280 275 269 259 238 242 250 271 266 249 244 240 229 255 230 225 220 216 204 201 199 199 200 207 208 222 222 226 220 217 217 226 220
332 333 335 333 332 332 330 323 314 311 303 301 280 280 272 269 277 260 243 246 260 261 255 248 239 223 232 246 236 219 221 217 214 202 198 200 204 206 212 218 222 221 217 210 215 225 227
338 339 340 345 347 345 342 337 328 322 313 292 287 284 284 271 268 263 253 264 262 265 243 217 218 187 200 222 219 210 223 218 210 204 197 200 202 196 203 222 223 216 209 211 216 221 228
353 356 359 357 354 353 354 353 346 337 332 324 301 290 281 273 256 266 269 273 266 252 248 242 168 190 218 246 224 193 205 213 211 209 199 199 196 194 194 208 214 214 213 215 218 226 230
Height
5900 5899 5897 5896 5895 5894 5893 5892 5890 5889 5888 5886 5885 5884 5883 5882 5881 5879 5878 5877 5877 5876 5875 5875 5874 5873 5872 5873 5872 5872 5875 5876 5878 5879 5881 5883 5887 5889 5892 5893 5893 5896 5901 5905 5903 5905 5905
5896 5895 5894 5892 5891 5890 5889 5888 5887 5885 5884 5883 5882 5881 5880 5879 5878 5877 5875 5875 5874 5873 5872 5872 5872 5872 5871 5871 5871 5870 5871 5873 5875 5877 5878 5880 5885 5888 5889 5890 5892 5894 5897 5906 5910 5904 5907
5892 5891 5890 5888 5887 5886 5885 5883 5882 5881 5879 5879 5878 5877 5876 5875 5875 5874 5873 5872 5871 5871 5870 5870 5870 5870 5870 5869 5869 5868 5868 5870 5871 5873 5875 5878 5881 5880 5886 5888 5889 5889 5893 5899 5906 5912 5908
5888 5887 5885 5884 5883 5881 5880 5879 5878 5876 5875 5874 5873 5872 5871 5870 5870 5870 5869 5869 5867 5867 5867 5867 5867 5867 5864 5866 5866 5866 5866 5867 5867 5869 5871 5873 5875 5878 5881 5887 5886 5886 5889 5894 5899 5907 5909
5883 5883 5881 5880 5879 5877 5875 5874 5872 5871 5869 5868 5867 5867 5866 5866 5865 5865 5865 5864 5863 5863 5863 5864 5865 5865 5864 5864 5863 5863 5863 5864 5864 5865 5866 5868 5871 5874 5879 5881 5884 5885 5888 5892 5897 5901 5903
5879 5878 5876 5875 5874 5873 5871 5870 5868 5866 5865 5863 5862 5861 5861 5861 5860 5859 5859 5859 5859 5858 5858 5858 5860 5862 5862 5860 5860 5859 5859 5860 5861 5861 5863 5864 5867 5869 5872 5874 5878 5886 5890 5890 5892 5899 5899
5876 5873 5871 5869 5868 5867 5865 5863 5862 5860 5859 5858 5856 5855 5855 5855 5855 5855 5854 5854 5855 5855 5854 5853 5855 5856 5856 5856 5856 5856 5856 5857 5857 5858 5859 5861 5862 5866 5870 5873 5879 5884 5887 5889 5893 5900 5897
5870 5868 5866 5864 5862 5860 5858 5856 5855 5853 5852 5850 5849 5849 5848 5846 5848 5847 5847 5847 5846 5847 5850 5849 5848 5851 5849 5850 5852 5851 5852 5853 5853 5855 5855 5856 5858 5863 5866 5868 5872 5877 5882 5885 5888 5893 5895
5863 5861 5858 5856 5853 5851 5849 5847 5845 5844 5843 5842 5841 5841 5840 5838 5841 5839 5839 5840 5838 5838 5840 5846 5842 5845 5843 5845 5847 5847 5846 5848 5849 5851 5852 5853 5857 5857 5860 5863 5866 5871 5877 5882 5884 5885 5888
5855 5852 5849 5846 5844 5841 5838 5836 5835 5833 5832 5832 5831 5831 5831 5830 5830 5830 5830 5832 5829 5831 5828 5839 5833 5838 5839 5837 5841 5840 5841 5843 5843 5845 5846 5848 5850 5850 5852 5856 5862 5865 5874 5881 5881 5881 5883
5844 5841 5838 5835 5833 5830 5828 5825 5823 5822 5821 5819 5819 5819 5821 5820 5818 5818 5821 5822 5821 5821 5814 5827 5827 5829 5830 5832 5832 5834 5834 5836 5840 5840 5839 5845 5844 5846 5847 5850 5854 5864 5869 5875 5877 5878 5877
5832 5829 5825 5822 5819 5817 5814 5811 5809 5808 5807 5806 5805 5805 5806 5805 5808 5804 5807 5808 5811 5811 5802 5813 5812 5819 5823 5824 5824 5824 5825 5828 5832 5832 5832 5838 5838 5839 5843 5846 5848 5859 5862 5867 5872 5871 5869
5819 5815 5811 5808 5804 5801 5798 5796 5794 5793 5792 5791 5790 5789 5788 5791 5788 5792 5791 5793 5797 5794 5800 5804 5801 5803 5808 5813 5815 5813 5817 5819 5822 5824 5828 5832 5832 5834 5836 5839 5842 5848 5852 5856 5859 5857 5856
5804 5799 5795 5791 5787 5784 5781 5779 5777 5776 5774 5774 5774 5773 5773 5772 5772 5773 5776 5777 5777 5783 5790 5790 5787 5788 5790 5797 5803 5802 5804 5808 5813 5815 5820 5822 5823 5829 5832 5831 5836 5837 5844 5844 5846 5850 5856
5787 5782 5777 5772 5768 5765 5762 5758 5756 5755 5753 5751 5755 5753 5753 5751 5751 5752 5755 5757 5762 5769 5770 5768 5770 5772 5777 5780 5787 5791 5792 5797 5803 5806 5809 5815 5818 5824 5823 5827 5829 5832 5831 5845 5844 5848 5850
5771 5764 5758 5752 5747 5742 5738 5734 5731 5729 5727 5724 5729 5730 5726 5724 5725 5727 5731 5739 5741 5747 5748 5748 5752 5759 5762 5764 5766 5774 5781 5788 5790 5796 5799 5804 5807 5813 5817 5820 5819 5822 5832 5833 5833 5836 5837
5752 5744 5736 5729 5722 5717 5711 5706 5702 5700 5697 5693 5696 5698 5695 5689 5693 5698 5708 5713 5715 5722 5722 5723 5731 5738 5744 5749 5749 5752 5761 5774 5781 5784 5788 5794 5795 5803 5805 5805 5812 5816 5817 5821 5827 5830 5830
5730 5721 5712 5704 5696 5687 5679 5673 5667 5663 5659 5653 5656 5660 5657 5657 5661 5666 5674 5681 5685 5693 5694 5698 5704 5710 5718 5725 5730 5735 5744 5749 5771 5776 5776 5779 5785 5786 5791 5798 5801 5807 5810 5816 5814 5821 5824
5708 5697 5686 5674 5663 5653 5643 5635 5629 5624 5619 5617 5617 5620 5623 5617 5624 5632 5638 5647 5651 5658 5663 5668 5674 5678 5690 5703 5706 5714 5723 5737 5746 5751 5766 5772 5766 5773 5780 5785 5786 5791 5800 5804 5810 5816 5814
5684 5671 5657 5643 5630 5618 5608 5599 5592 5585 5581 5581 5579 5583 5587 5586 5591 5594 5600 5605 5610 5620 5626 5629 5639 5646 5655 5668 5681 5694 5701 5716 5724 5733 5744 5751 5752 5752 5761 5774 5782 5783 5787 5795 5799 5799 5805
5659 5643 5628 5613 5598 5590 5580 5571 5563 5556 5551 5551 5551 5555 5555 5567 5571 5573 5575 5575 5584 5594 5597 5607 5607 5611 5623 5639 5648 5666 5678 5693 5704 5714 5724 5729 5733 5741 5748 5758 5770 5775 5778 5783 5787 5793 5794
5633 5619 5608 5596 5584 5574 5564 5553 5545 5543 5541 5541 5540 5540 5543 5551 5554 5557 5562 5567 5565 5570 5573 5586 5578 5593 5599 5611 5623 5641 5658 5672 5686 5695 5703 5711 5715 5728 5736 5744 5753 5761 5768 5774 5779 5783 5787
5616 5605 5594 5584 5574 5564 5554 5546 5542 5538 5536 5535 5536 5535 5534 5539 5543 5547 5551 5549 5552 5551 5562 5566 5564 5568 5580 5591 5597 5619 5635 5651 5668 5679 5688 5696 5701 5712 5717 5730 5741 5747 5750 5761 5769 5775 5779
5606 5595 5585 5576 5567 5560 5552 5544 5540 5536 5533 5532 5532 5531 5531 5533 5532 5534 5537 5539 5540 5541 5547 5553 5551 5553 5572 5568 5578 5596 5615 5633 5650 5663 5670 5682 5688 5692 5705 5718 5726 5732 5743 5752 5760 5766 5772
5596 5587 5579 5569 5561 5553 5547 5541 5536 5533 5531 5529 5528 5527 5526 5526 5526 5527 5529 5531 5534 5535 5537 5538 5541 5543 5553 5554 5573 5586 5600 5611 5629 5646 5657 5667 5676 5681 5690 5698 5712 5722 5735 5746 5751 5755 5763
5592 5583 5573 5564 5555 5548 5542 5537 5534 5531 5528 5525 5523 5522 5520 5521 5523 5522 5524 5526 5527 5527 5527 5525 5530 5539 5548 5551 5562 5571 5582 5595 5615 5633 5649 5659 5665 5671 5679 5687 5694 5712 5727 5737 5742 5745 5753
5586 5576 5566 5557 5550 5544 5538 5533 5529 5526 5523 5521 5519 5518 5516 5516 5520 5519 5520 5521 5521 5520 5519 5522 5526 5530 5542 5544 5550 5562 5572 5583 5602 5619 5638 5645 5651 5658 5668 5678 5688 5701 5719 5726 5730 5735 5738
5579 5570 5562 5554 5547 5541 5535 5530 5526 5522 5519 5517 5515 5514 5513 5513 5516 5513 5514 5516 5516 5515 5515 5518 5521 5525 5533 5537 5543 5551 5565 5574 5588 5601 5614 5620 5633 5647 5662 5672 5683 5695 5706 5714 5718 5722 5728
5577 5568 5561 5554 5547 5541 5535 5529 5524 5520 5516 5513 5511 5510 5509 5508 5512 5509 5511 5511 5512 5512 5514 5515 5517 5525 5531 5537 5540 5550 5560 5570 5585 5597 5601 5616 5620 5636 5654 5666 5676 5686 5698 5703 5705 5714 5719